Torna al catalogo

FLOCK 4H 16

AttivoScienzaSSO
NORAD 66719·PAYLOAD·🇺🇸 United States

Lanciato Nov 28, 2025 da Vandenberg Space Force Base

Loading…

Prossimi Passaggi (prossime 24 ore)

TLE

AggiornatoSource: CelesTrak SupGP

Epoca: Sep 14, 2026, 12:45 UTC

1 66719C 25276BF  26257.53140046  .00010828  00000+0  49200-3 0  2579
2 66719  97.4161 329.7017 0005612  65.5251 260.0830 15.20814088    13

Traccia FLOCK 4H 16 in tempo reale con AllMySat

Download on the App Store